Waukegan, IL

2:29 AM CDT on August 25, 2016 (GMT -0500)
Waukegan Regional

Weather History for KUGN - July, 2013

Change the Weather History Date:

Monday, July 8, 2013

  Actual Average Record
Temperature  
Mean Temperature 77 °F -  
Max Temperature 86 °F 81 °F 92 °F (2007)
Min Temperature 68 °F 62 °F 49 °F (2015)
Degree Days  
Heating Degree Days 0 0  
Month to date heating degree days 5 3  
Since 1 June heating degree days 102 89  
Since 1 July heating degree days 5 3  
Cooling Degree Days 12 7  
Month to date cooling degree days 41 53  
Year to date cooling degree days 178 183  
Since 1 June cooling degree days 131 158  
Growing Degree Days 29 (Base 50)    
Moisture  
Dew Point 71 °F    
Average Humidity 81    
Maximum Humidity 97    
Minimum Humidity 65    
Precipitation  
Precipitation 0.17 in 0.12 in 1.00 in (2003)
Month to date precipitation 0.34 0.96  
Year to date precipitation 18.45 17.70  
Sea Level Pressure  
Sea Level Pressure 29.93 in    
Wind  
Wind Speed 7 mph (SW)    
Max Wind Speed 21 mph    
Max Gust Speed 28 mph    
Visibility 8 miles    
Events Rain , Thunderstorm    
T = Trace of Precipitation, MM = Missing Value Source: NWS Daily Summary

Daily Weather History Graph

Daily Weather History Graph

Search for Another Location

Airport or City:

Trip Planner

Search our weather history database for the weather conditions in past years. The results will help you decide how hot, cold, wet, or windy it might be!

Date:

Astronomy

Jul. 08, 2013 Rise Set
Actual Time 5:22 AM CDT 8:30 PM CDT
Civil Twilight 4:48 AM CDT 9:04 PM CDT
Nautical Twilight 4:04 AM CDT 9:48 PM CDT
Astronomical Twilight 3:12 AM CDT 10:40 PM CDT
Moon 5:53 AM CDT (7/8) 8:30 PM CDT (7/8)
Length of Visible Light 16h 15m
Length of Day
15h 07m
New Moon, 0% of the Moon is Illuminated
Jul 8
New Moon
Jul 15
First Quarter
Jul 22
Full
Jul 29
Last Quarter
Aug 6
New

Hourly Weather History & Observations

Time (CDT) Temp. Heat Index Dew Point Humidity Pressure Visibility Wind Dir Wind Speed Gust Speed Precip Events Conditions
12:52 AM 77.0 °F - 69.1 °F 76% 29.94 in 9.0 mi SSW 8.1 mph - N/A   Partly Cloudy
1:52 AM 77.0 °F - 69.1 °F 76% 29.93 in 9.0 mi SW 5.8 mph - N/A   Mostly Cloudy
2:52 AM 75.9 °F - 69.1 °F 79% 29.92 in 8.0 mi SW 5.8 mph - N/A   Partly Cloudy
3:52 AM 75.9 °F - 69.1 °F 79% 29.90 in 9.0 mi SSW 8.1 mph - N/A   Clear
4:52 AM 77.0 °F - 68.0 °F 74% 29.90 in 9.0 mi SW 8.1 mph - N/A   Mostly Cloudy
5:52 AM 75.9 °F - 68.0 °F 76% 29.91 in 8.0 mi SW 9.2 mph - N/A   Mostly Cloudy
6:52 AM 75.0 °F - 68.0 °F 79% 29.92 in 7.0 mi WSW 6.9 mph 20.7 mph 0.00 in Rain Light Rain
7:52 AM 73.0 °F - 69.1 °F 87% 29.94 in 5.0 mi West 5.8 mph - 0.03 in Rain Light Rain
8:52 AM 72.0 °F - 70.0 °F 93% 29.96 in 5.0 mi WSW 3.5 mph - 0.02 in Rain Light Rain
9:52 AM 73.0 °F - 70.0 °F 90% 29.97 in 3.0 mi SSW 10.4 mph - 0.08 in Rain Light Rain
10:52 AM 72.0 °F - 70.0 °F 93% 29.96 in 9.0 mi SSW 12.7 mph - 0.01 in   Overcast
11:52 AM 75.0 °F - 70.0 °F 84% 29.92 in 10.0 mi SSW 17.3 mph 23.0 mph 0.01 in   Clear
12:52 PM 78.1 °F - 71.1 °F 79% 29.90 in 9.0 mi SSW 15.0 mph 25.3 mph N/A   Clear
1:52 PM 82.0 °F 86.7 °F 72.0 °F 71% 29.90 in 9.0 mi SW 16.1 mph 26.5 mph N/A   Scattered Clouds
2:07 PM 80.6 °F 84.6 °F 71.6 °F 74% 29.93 in 9.0 mi SW 16.1 mph 27.6 mph N/A   Mostly Cloudy
2:52 PM 82.9 °F 88.8 °F 73.0 °F 72% 29.90 in 9.0 mi SW 12.7 mph 18.4 mph N/A   Overcast
3:26 PM 82.4 °F 87.2 °F 71.6 °F 70% 29.94 in 9.0 mi WSW 6.9 mph - N/A   Overcast
3:52 PM 82.9 °F 88.0 °F 72.0 °F 69% 29.90 in 8.0 mi SW 6.9 mph - N/A   Mostly Cloudy
4:52 PM 84.9 °F 92.1 °F 73.9 °F 69% 29.88 in 8.0 mi SW 10.4 mph - N/A   Partly Cloudy
5:52 PM 86.0 °F 93.8 °F 73.9 °F 67% 29.88 in 8.0 mi Variable 6.9 mph - N/A   Partly Cloudy
6:52 PM 84.0 °F 91.2 °F 73.9 °F 72% 29.90 in 8.0 mi WNW 3.5 mph - N/A Thunderstorm Thunderstorm
6:58 PM 80.6 °F 85.4 °F 73.4 °F 79% 29.95 in 8.0 mi North 10.4 mph 20.7 mph N/A Thunderstorm Thunderstorm
7:47 PM 77.0 °F - 73.4 °F 89% 29.95 in 9.0 mi Calm Calm - 0.02 in   Scattered Clouds
7:52 PM 77.0 °F - 73.0 °F 88% 29.92 in 9.0 mi WSW 3.5 mph - 0.02 in Thunderstorm Mostly Cloudy
8:25 PM 75.2 °F - 71.6 °F 89% 29.95 in 9.0 mi Calm Calm - N/A Thunderstorm Partly Cloudy
8:52 PM 75.9 °F - 72.0 °F 87% 29.92 in 10.0 mi SW 3.5 mph - N/A   Clear
9:52 PM 75.0 °F - 73.0 °F 94% 29.94 in 8.0 mi Calm Calm - N/A   Overcast
10:04 PM 73.4 °F - 73.4 °F 100% 29.98 in 7.0 mi Calm Calm - N/A Thunderstorm Thunderstorm
10:48 PM 73.4 °F - 71.6 °F 94% 29.99 in 6.0 mi NE 5.8 mph - N/A   Clear
10:52 PM 73.0 °F - 72.0 °F 96% 29.96 in 5.0 mi NE 4.6 mph - N/A   Clear
11:52 PM 69.1 °F - 68.0 °F 96% 29.97 in 4.0 mi NE 3.5 mph - N/A   Partly Cloudy